Other Public Products
Issued by NWS Grand Forks, ND

Home | Current Version | Previous Version | Graphics & Text | Print | Product List | Glossary On
Versions: 1 2 3 4 5 6 7 8 9 10 11 12 13 14 15 16 17 18 19 20 21 22 23 24 25 26 27 28 29 30 31 32 33 34 35 36 37 38 39 40 41 42 43 44 45 46 47 48 49 50
000
FPUS83 KFGF 011431
OPUFGF
PRAIRIE TO PINES WEATHER ROUNDUP
NATIONAL WEATHER SERVICE EASTERN NORTH DAKOTA/GRAND FORKS ND
800 AM CST WED MAR 01 2017

 **SATELLITE DATA USED TO AUGMENT SKY COVER AT AUTOMATED STATIONS**
 *****  WEATHER ACROSS EASTERN NORTH DAKOTA  *****

CITY           SKY/WX    TMP DP  RH WIND       PRES   REMARKS
GRAND FORKS    FLURRIES  14   6  70 NW13      30.02R WCI   0
GRAND FORKS AF FLURRIES  14  10  85 N10       30.02R WCI   1
GRAND CITY NWS NOT AVBL
BUXTON         NOT AVBL
DEVILS LAKE    FLURRIES   7   3  85 W7        30.02R WCI  -5
FARGO          MOCLDY    15   9  76 NW12      29.99R WCI   2
WAHPETON ARPT  FAIR      19  12  73 NW15      29.97R WCI   5
$$

 *****  WEATHER ACROSS CENTRAL AND WESTERN NORTH DAKOTA  *****

CITY           SKY/WX    TMP DP  RH WIND       PRES   REMARKS
JAMESTOWN      FLURRIES  14  11  87 N12       29.99R WCI   0
BISMARCK       FAIR      18  14  84 NW10      30.04R WCI   6
MINOT          CLOUDY    12   8  84 W14       30.04R WCI  -3
MINOT AFB      FAIR       7   3  85 NW14      30.04R WCI -10
GARRISON         N/A      7   3  84 NW10      30.03R WCI  -8
WILLISTON      FAIR       6   3  87 SW3       30.06R
DICKINSON      FAIR      11   8  88 W7        30.01R WCI   0
HETTINGER      FAIR      20  12  71 NW13      30.04R WCI   7
$$

 *****  OTHER OBSERVATIONS NORTHEAST NORTH DAKOTA  *****

CITY           SKY/WX    TMP DP  RH WIND       PRES   REMARKS
WALHALLA       NOT AVBL
LANGDON        NOT AVBL
CAVALIER       LGT SNOW  14  10  85 N7        30.03R WCI   4
GRAFTON        LGT SNOW  12  10  92 N12       30.04R WCI  -2
CANDO          NOT AVBL
FORT TOTTEN      N/A      6   4  92 NW2       29.95S
ROLLA          FLURRIES   9   7  92 NW17      29.99R WCI -10
RUGBY          FLURRIES   5   1  85 W8        30.03R WCI  -8
 ***** THE ABOVE OBSERVATIONS ARE NON NWS ARE NOT QUALITY
        CONTROLLED AND MAY MIS-REPORT RAIN FOR SNOW...
$$

 *****  OTHER OBSERVATIONS SOUTHEAST NORTH DAKOTA *****

CITY           SKY/WX    TMP DP  RH WIND       PRES   REMARKS
COOPERSTOWN    FAIR      12   9  85 NW15      30.00S WCI  -4
VALLEY CITY    CLOUDY    14  14 100 NW14      30.02R WCI  -1
OAKES          NOT AVBL
GWINNER        PTSUNNY   21  14  73 NW17      29.99R WCI   7
SHEYENNE NWR     N/A     16   8  70 N7        29.95S WCI   6
BUFFALO        NOT AVBL
WYNDMERE         N/A     19  14  79 NW12        N/A  WCI   7
 ***** THE ABOVE OBSERVATIONS ARE NON NWS ARE NOT QUALITY
       CONTROLLED AND MAY MIS-REPORT RAIN FOR SNOW...
$$

  *****  WEATHER ACROSS NORTHERN MINNESOTA  *****

CITY           SKY/WX    TMP DP  RH WIND       PRES   REMARKS
FLAG ISLAND    FAIR      10   1  67 CALM      29.97R
WARROAD        FAIR      12   7  79 CALM      29.98R
ROSEAU         MOCLDY    12   5  73 CALM      29.98R
HALLOCK        LGT SNOW  12   9  85 N10       30.01R WCI  -1
THF RVR FALLS  FAIR      12   6  77 NW9       29.97R WCI   0
HALSTAD          N/A     14   7  73 N17         N/A  WCI  -3
FOSSTON        FAIR      12   9  85 NW5       29.94R WCI   4
BAUDETTE       CLOUDY     9   1  70 CALM      29.93R
WASKISH        FAIR      10   5  79 E7        29.92S WCI   0
CROOKSTON      FAIR      12   9  85 N10       30.01R WCI  -1
$$
  *****  WEATHER ACROSS CENTRAL AND WEST MINNESOTA  *****

CITY           SKY/WX    TMP DP  RH WIND       PRES   REMARKS
BEMIDJI        FAIR      12   7  79 NW3       29.90R
PARK RAPIDS    FAIR      19   9  65 N5        29.88R WCI  12
WADENA         FAIR      21  16  79 NW7       29.89R WCI  13
DETROIT LAKES  FAIR      19  18  93 NW12      29.92R WCI   7
MOORHEAD       FAIR      14   9  79 NW13      29.99R WCI   0
FERGUS FALLS   FAIR      18  16  93 NW12      29.98R WCI   5
ELBOW LAKE     FAIR      19  18  93 NW12      29.93R WCI   7
MORRIS MN      FAIR      21  18  86 NW14      29.92R WCI   8
STAPLES        FAIR      21  16  79 N7        29.88S WCI  13
WHEATON        FAIR      19  14  79 NW13      29.98R WCI   7
$$
  *****  WEATHER ELSEWHERE ACROSS MINNESOTA  *****

CITY           SKY/WX    TMP DP  RH WIND       PRES   REMARKS
DULUTH         CLOUDY    15   8  73 N10       29.83R WCI   2
INTRNTL FALLS  FAIR       8  -2  63 NE6       29.93S WCI  -2
ELY            FAIR       9   0  66 CALM      29.88R
CLOQUET        PTSUNNY   18   9  68 N7        29.84S WCI   8
BRAINERD       FAIR      24  16  71 N7        29.87R WCI  16
HIBBING        FAIR      13   4  67 N6        29.87R WCI   4
ALEXANDRIA     FAIR      23  18  81 NW8       29.89R WCI  14
SAINT CLOUD    FAIR      26  22  84 N7        29.86R WCI  18
MINNEAPOLIS    CLOUDY    27  21  78 N10G22    29.82R WCI  17
$$

  *****  WEATHER ACROSS SOUTH DAKOTA  *****

CITY           SKY/WX    TMP DP  RH WIND       PRES   REMARKS
SIOUX FALLS    MOCLDY    24  21  88 NW14      29.95R WCI  12
BROOKINGS      FAIR      21  18  88 NW12      29.92R WCI   9
WATERTOWN      FAIR      19  16  88 NW12      29.92R WCI   7
HURON          FAIR      14  12  92 NW7       30.00R WCI   4
SISSETON         N/A     20  15  81 N17       29.95R WCI   5
ABERDEEN       LGT SNOW  21  16  81 N6        30.01R WCI  13
MITCHELL       FAIR      22  20  92 W10       30.01R WCI  11
PIERRE         FAIR      21  19  92 W12       30.01R WCI   9
MOBRIDGE       FLURRIES  27  21  78 N16G22    29.97R WCI  15
RAPID CITY     FAIR      19  13  77 NW7       30.04R WCI  10
$$

  *****  SOME WEATHER IN NEARBY STATES *****

CITY           SKY/WX    TMP DP  RH WIND       PRES   REMARKS
GLASGOW MT     CLOUDY    18  15  88 SE6       30.02S WCI  10
GREAT FALLS MT FAIR      26  14  60 SW28G37   29.90R WCI  10
CHEYENNE WY    FAIR      20   3  48 NW21G31   30.06R WCI   4
SCOTTSBLUFF NE FAIR      19   9  65 W10       30.14R WCI   7
OMAHA NE       CLOUDY    34  26  72 NW20      29.96R WCI  23
DES MOINES IA  DRIZZLE   37  32  82 NW21G32   29.82R
DAVENPORT IA   CLOUDY    38  35  89 W23       29.64R
CHICAGO IL     DRZL/FOG  42  40  92 NW8       29.46R VSB 1/4
EAU CLAIRE WI  SNOW      26  24  92 N20G28    29.71R VSB 1/4 WCI  12
LA CROSSE WI   SNOW      31  30  96 NW16      29.67R VSB 1/2 WCI  20
$$

  *****  SOME NATIONAL WEATHER *****

CITY           SKY/WX    TMP DP  RH WIND       PRES   REMARKS
LA GUARDIA NY  CLOUDY    58  53  84 S9        29.73F
RALEIGH NC     CLOUDY    70  63  78 SW20      29.96F
ATLANTA GA     PTSUNNY   66  61  84 SW14      30.05F
NEW ORLEANS LA PTSUNNY   73  69  87 S9        30.02R
OKLAHOMA CITY  FAIR      42  20  41 N14       30.14R
ALBUQUERQUE NM FAIR      31  13  47 N8        30.29R WCI  23
SALT LAKE CITY CLOUDY    30  23  75 SE7       30.39R WCI  23
LOS ANGELES CA FAIR      47  37  68 E5        30.24R
BOISE ID       FAIR      30  22  72 SE9       30.37R WCI  22
SEATTLE WA     CLOUDY    41  39  93 S17G26    30.30R
$$

*** WEATHER ACROSS MANITOBA...SASKATCHEWAN AND ONTARIO ***
                ***ONTARIO***

CITY           SKY/WX    TMP DP  RH WIND       PRES   REMARKS
GERALDTON      MOSUNNY   -8 -15  71 NE8       29.97R WCI -23
THUNDER BAY    CLOUDY     7  -6  56 N6        29.95R WCI  -3
SIOUX LOOKOUT  MOCLDY     0  -9  65 VRB5      29.97S WCI -10
TORONTO        CLOUDY    54  50  87 W13       29.36R
BIG TROUT LK   MOCLDY    -4 -13  65 S3        30.04F
PICKLE LAKE    MOSUNNY  -13 -18  77 SE2       30.00S
DRYDEN         MOCLDY     1  -4  78 NE6       29.94S WCI -10
KENORA         MOCLDY     7  -2  66 E3        29.95R
$$
                *** MANITOBA***

CITY           SKY/WX    TMP DP  RH WIND       PRES   REMARKS
BRANDON        PTCLDY    -2  -6  84 NW7       30.03R WCI -16
DAUPHIN        CLEAR      5   1  85 W9        30.07R WCI  -9
ISLAND LAKE    MOCLDY     3  -6  66 S2        29.96R
PILOT MOUND      N/A      9   7  92 NW8         N/A  WCI  -4
THE PAS        MOCLDY    -9 -20  59 N10       30.16R WCI -28
THOMPSON       CLEAR    -18 -27  63 NW12G18   30.07R WCI -40
WINNIPEG       CLOUDY    10   5  79 NW6       30.03R WCI   1
LYNN LAKE      CLEAR    -26 -33  68 NW7       30.09R WCI -44
CHURCHILL      FLURRIES -24 -29  76 N9        30.08R WCI -45
GILLAM         PTCLDY   -11 -18  70 W16       29.95R WCI -34
$$
                ***SASKATCHEWAN***

CITY           SKY/WX    TMP DP  RH WIND       PRES   REMARKS
ESTEVAN        FOG        3   0  85 W5        30.06R VSB 5/8 WCI  -6
KINDERSLEY     PTCLDY    10   7  85 SE6       29.89R WCI   1
LLOYDMINSTER   MOCLDY    -2  -6  84 E8        29.92R WCI -17
PRINCE ALBERT  CLOUDY     1  -8  66 E9        30.09R WCI -14
REGINA         FOG        1  -2  85 SE2       30.04R VSB 1
YORKTON        CLEAR      1  -2  85 W2        30.03R



USA.gov is the U.S. government's official web portal to all federal, state and local government web resources and services.